Flag for Canada Weather past 2 weeks in Gatineau, Quebec, Canada

Now
43 °F

Partly sunny.


Feels Like: 36 °F
Forecast: 31 / 54 °F
Wind: 13 mph from Northwest

Location: Ottawa Int'L. Ont.

Current Time: Apr 25, 2015 at 1:12:39 PM

Latest Report: Apr 25, 2015 at 12:00 PM


Visibility: 15 mi

Pressure: 29.87 "Hg

Humidity: 53%

Dew point: 27 °F

Location of GatineauLocation

Historic Weather in Gatineau — Graph

°F

Gatineau temperature yesterday

Maximum temperature yesterday: 39 °F (at 2:00 PM)
Minimum temperature yesterday: 32 °F (at 5:00 AM)
Average temperature yesterday: 35 °F

Past Weeks' High & Low Weather Summary

 TemperatureHumidityPressure
High73 °F (Apr 13, 4:00 PM)100% (Apr 10, 12:00 PM)30.45 "Hg (Apr 10, 12:00 PM)
Low28 °F (Apr 16, 4:00 AM)13% (Apr 15, 4:00 PM)29.40 "Hg (Apr 10, 4:00 PM)
Average46 °F56%29.93 "Hg
* Reported Apr 10 12:00 Noon — Apr 25 12:00 Noon, Gatineau, Weather by CustomWeather, © 2015

Note: Actual official high and low records may vary slightly from our data, if they occured in-between our weather recording intervals... More about our weather records

Advertising

Gatineau weather history for previous 24 hours

 ConditionsComfort  
Time TempWeatherWind HumidityBarometerVisibility
12:00 PM
Sat, Apr 25
43 °FPartly sunny.13 mph53%29.87 "Hg15 mi
11:00 AM37 °FPartly sunny.14 mph60%29.88 "Hg15 mi
10:00 AM36 °FPartly sunny.13 mph65%29.90 "Hg15 mi
9:00 AM36 °FPartly sunny.9 mph60%29.90 "Hg15 mi
8:00 AM34 °FScattered clouds.8 mph65%29.90 "Hg15 mi
7:00 AM30 °FPassing clouds.7 mph75%29.90 "Hg15 mi
6:00 AM28 °FPassing clouds.10 mph74%29.90 "Hg15 mi
5:00 AM28 °FPassing clouds.8 mph74%29.90 "Hg15 mi
4:00 AM28 °FClear.8 mph74%29.92 "Hg15 mi
3:00 AM30 °FClear.12 mph69%29.93 "Hg15 mi
2:00 AM30 °FPassing clouds.9 mph69%29.92 "Hg15 mi
1:00 AM32 °FPassing clouds.9 mph64%29.93 "Hg15 mi
12:00 AM34 °FPassing clouds.13 mph56%29.93 "Hg15 mi
11:00 PM
Fri, Apr 24
34 °FPassing clouds.10 mph56%29.93 "Hg15 mi
10:00 PM36 °FPassing clouds.12 mph52%29.93 "Hg15 mi
9:00 PM37 °FPassing clouds.17 mph48%29.92 "Hg15 mi
7:00 PM39 °FOvercast.13 mph45%29.89 "Hg15 mi
6:00 PM39 °FOvercast.15 mph45%29.89 "Hg15 mi
5:00 PM39 °FPartly sunny.17 mph45%29.88 "Hg15 mi
4:00 PM39 °FOvercast.14 mph45%29.87 "Hg15 mi
3:00 PM39 °FOvercast.17 mph45%29.87 "Hg15 mi
2:00 PM39 °FPartly sunny.17 mph45%29.87 "Hg15 mi
1:00 PM37 °FPartly sunny.16 mph52%29.87 "Hg15 mi
Weather by CustomWeather, © 2015

See weather overviewHow to use our weather pages